User: anonymous   Login
Location: Mascot Post Office (historical)
(40.2645°N, 99.5462°W)
Time: 00:43:24
(UTC+00:00)
Language:

ERS-2 - Orbit

View from above orbital plane
View from above orbital plane
View from above satellite
View from above satellite

Ground track
Ground track

The orbit data is extracted from the following two-line orbital elements,

1 23560U 95021A   20273.54646756 +.00001218 +00000-0 +55118-4 0  9996
2 23560 098.5527 081.3675 0003707 158.5673 201.5716 15.23312169357961
Epoch (UTC): 29 September 2020 13:06:54
Eccentricity: 0.0003707
inclination: 98.5527°
perigee height: 493 km
apogee height: 498 km
right ascension of ascending node: 81.3675°
argument of perigee: 158.5673°
revolutions per day: 15.23312169
mean anomaly at epoch: 201.5716°
orbit number at epoch: 35796

The dashed part of the orbit path shows where the satellite is in the earth's shadow,  

DLR